Theta_e
322 317 311 314 303 299 293 295 300 301 303 302 301 295 293 294 293 288 301 304 306 324 342 342 345 349 349 349 349 349 349 350 350 350 348 349 349 349 348 348 349 349 349 348 350 348 347 347 345
320 316 315 309 298 290 294 303 301 305 306 300 296 296 292 290 296 297 297 302 304 305 307 315 326 330 336 342 347 348 347 347 348 348 348 348 348 347 349 350 349 348 348 348 349 349 348 347 345
311 314 310 304 296 293 296 304 306 307 301 304 293 294 291 289 295 295 299 301 302 301 303 310 320 322 325 329 332 346 347 346 346 347 347 348 347 347 347 350 350 348 348 348 347 347 346 346 346
304 314 312 299 295 300 303 307 299 300 296 296 293 288 291 296 295 297 299 299 298 299 300 304 313 317 319 322 323 327 337 346 346 345 346 347 347 348 346 347 349 349 348 348 347 347 347 346 345
308 309 303 300 298 301 298 296 297 292 293 292 293 289 288 294 297 296 296 297 296 297 298 299 308 311 314 316 318 321 324 329 342 345 345 346 347 348 347 347 348 348 348 348 347 347 346 346 345
301 307 299 296 298 306 297 295 294 292 291 290 292 287 288 294 294 294 294 293 295 295 296 296 301 305 307 311 313 315 318 321 327 340 345 345 345 346 347 348 348 347 347 347 348 348 346 345 344
299 301 299 299 301 293 292 294 291 288 287 287 288 286 288 290 293 293 292 292 293 293 293 293 294 297 301 304 307 309 312 314 317 322 332 341 340 342 343 343 345 347 347 346 346 345 345 345 343
298 297 295 288 294 289 292 294 292 288 284 290 289 283 283 288 291 292 291 290 291 291 292 291 292 293 293 295 302 304 306 309 311 314 313 319 333 335 336 335 338 342 345 345 344 343 343 343 341
298 291 289 286 289 288 290 290 289 289 287 288 288 287 288 290 290 289 288 288 289 290 290 290 290 291 291 294 296 298 301 304 306 308 311 311 318 335 334 332 334 339 340 342 343 342 341 338 336
290 287 286 288 287 286 286 287 286 285 285 286 286 288 289 289 288 286 285 285 286 286 288 289 289 289 290 292 292 293 295 297 300 302 304 307 310 317 332 329 329 333 334 337 340 340 338 332 331
288 285 287 286 288 287 285 284 285 284 282 284 284 285 286 286 286 286 285 285 284 286 287 288 288 289 288 289 290 291 294 296 296 298 302 303 308 313 311 319 333 331 325 332 335 336 336 334 332
285 287 287 288 286 285 284 286 284 284 283 287 286 286 286 285 285 285 285 285 286 286 287 288 288 288 288 289 289 291 292 293 293 296 297 300 303 304 306 309 311 330 331 330 332 333 334 335 333
284 284 286 287 286 285 287 284 283 283 286 287 287 286 284 284 284 285 286 286 286 286 287 287 288 287 288 288 288 289 290 291 293 294 295 298 298 300 302 305 308 311 325 331 330 331 332 332 333
286 284 283 284 283 284 283 282 285 284 286 286 286 284 284 284 284 283 284 285 285 286 286 287 287 287 288 287 288 288 289 290 291 292 294 293 295 295 297 299 302 305 307 308 321 330 331 331 331
285 281 282 280 282 281 284 281 281 284 286 284 284 283 284 284 284 282 283 284 284 285 286 286 287 287 286 287 287 288 289 289 289 291 293 291 293 292 293 295 298 302 303 307 309 320 330 330 330
282 282 278 278 280 280 280 275 281 283 282 281 281 280 282 283 283 283 284 284 284 284 285 286 287 286 286 286 286 287 288 288 288 289 289 290 291 291 291 293 295 297 301 304 307 308 310 328 329
277 273 275 275 279 278 277 275 281 282 281 279 279 280 280 281 282 282 283 283 283 283 284 285 285 285 285 286 286 286 287 287 287 288 288 288 289 290 289 291 292 294 297 299 302 303 306 306 317
272 272 273 272 274 276 276 275 279 280 279 278 278 278 279 280 280 282 283 283 283 283 283 284 285 285 285 285 285 285 286 286 287 286 287 288 288 288 289 289 290 291 291 292 296 298 302 305 309
273 272 270 271 275 274 274 275 277 279 277 276 276 277 277 279 281 282 283 282 282 283 282 282 283 284 284 283 283 283 282 284 285 286 287 287 287 288 287 287 287 288 288 290 292 294 296 298 302
273 271 268 272 275 273 272 273 277 278 278 278 278 276 277 277 278 280 280 280 281 281 281 282 283 283 283 283 283 283 283 283 284 285 286 286 287 287 287 286 287 288 288 289 289 290 291 295 299
270 270 269 271 273 273 270 271 273 277 279 279 279 278 277 277 278 278 278 278 279 279 279 281 282 282 282 283 283 283 283 283 283 283 284 285 286 286 286 286 287 287 288 287 288 289 290 289 293
272 272 273 272 271 269 271 267 271 274 277 278 279 276 276 277 278 279 279 278 278 279 280 281 281 281 282 282 281 280 279 279 281 282 283 284 285 285 286 285 286 287 287 287 287 290 290 291 289
272 274 273 273 270 269 269 267 269 274 274 277 278 276 276 277 278 278 278 279 279 279 279 279 280 280 280 280 280 279 278 280 280 281 281 282 283 284 284 284 284 286 286 286 286 286 287 288 289
275 273 273 272 270 262 267 268 268 271 275 276 277 277 276 277 277 278 279 280 279 279 279 279 279 279 279 279 278 278 277 277 277 278 278 279 280 281 282 282 283 284 284 284 285 285 286 287 288
272 271 265 263 260 264 268 266 270 273 276 278 279 276 276 277 276 277 278 278 278 279 279 279 278 277 278 277 277 277 276 277 276 277 277 277 277 277 278 279 280 281 282 283 284 285 285 286 286
271 270 265 259 264 267 270 267 271 274 277 277 278 277 276 276 277 277 278 278 278 279 278 278 278 277 277 277 276 276 276 276 276 276 276 276 276 276 278 278 278 278 280 281 283 284 284 285 285
269 266 270 261 261 261 267 269 274 276 274 274 275 276 275 276 276 277 278 278 278 278 278 278 277 277 277 277 276 275 275 276 275 275 276 276 276 277 277 277 277 277 278 278 279 283 283 285 284
270 272 265 263 257 257 266 265 269 274 274 275 275 275 275 276 276 277 278 278 278 278 278 278 278 277 277 277 276 276 275 276 275 275 275 276 276 277 276 276 276 276 276 277 277 279 283 283 283
267 266 266 267 265 261 260 265 268 273 277 276 276 276 276 277 277 277 277 278 278 278 278 278 277 277 277 277 276 276 276 276 276 276 275 275 276 276 276 276 276 275 275 275 275 276 280 280 282
267 266 266 263 262 262 264 264 274 274 275 277 277 278 277 278 277 277 277 277 277 277 277 277 278 277 277 276 276 276 276 276 275 275 275 275 274 275 275 275 275 274 274 274 274 275 277 278 279
Wind_Speed
12 11 1 4 4 5 3 5 3 2 7 11 15 23 18 14 9 7 8 21 25 19 9 10 10 4 3 4 5 5 5 3 1 2 2 2 1 2 2 2 3 3 5 6 11 11 10 10 11
7 6 2 2 5 4 2 5 5 4 13 11 13 6 12 9 13 7 8 22 18 17 16 20 26 30 27 20 5 2 4 5 6 2 3 2 3 4 5 5 4 5 8 9 10 11 10 11 11
5 2 3 3 3 3 5 1 5 6 10 5 8 9 7 8 8 5 10 16 17 19 17 20 28 30 29 26 29 11 3 4 3 8 7 5 6 6 6 7 5 7 8 9 6 8 10 11 10
3 1 3 4 0 1 1 5 5 4 9 11 13 14 9 15 5 7 10 14 16 17 17 21 29 29 28 27 28 26 25 7 5 4 6 9 8 8 7 7 7 8 8 9 7 9 12 10 10
2 3 4 5 2 1 7 7 12 8 5 9 3 8 7 7 6 7 11 14 16 15 16 17 28 29 28 27 29 27 28 25 18 6 5 6 8 9 9 9 9 9 8 8 8 9 10 10 10
3 2 1 1 3 2 5 8 7 6 6 5 9 7 5 4 11 11 12 13 14 14 15 16 23 27 28 27 28 28 27 26 26 20 8 7 8 9 11 10 10 10 9 9 8 8 11 11 11
5 4 4 4 7 2 4 6 6 9 9 9 4 6 6 14 11 10 11 11 14 16 16 16 16 20 25 25 27 27 27 26 26 26 26 10 9 10 10 11 11 11 11 11 10 10 11 12 12
4 3 2 4 7 4 4 4 6 7 5 2 5 6 4 7 9 8 10 14 13 15 16 17 16 16 16 14 24 25 26 26 26 25 26 25 14 10 10 10 10 13 13 12 11 11 12 12 12
2 4 3 3 2 4 6 4 6 6 12 9 6 7 4 6 9 11 11 16 14 15 16 16 16 16 16 14 15 20 23 25 24 23 23 16 13 10 7 8 11 12 13 13 14 13 13 12 13
4 3 3 2 3 4 5 5 2 5 5 8 7 8 9 9 12 15 16 14 16 17 17 15 15 16 15 12 13 12 13 11 11 13 15 11 13 13 13 9 12 13 13 15 15 15 12 11 5
4 3 5 3 1 4 5 5 2 7 6 3 6 5 6 9 11 11 11 10 11 11 12 15 14 15 14 12 10 7 7 7 9 13 13 13 10 10 9 10 6 5 8 7 8 9 8 8 7
8 6 4 1 5 3 4 5 6 6 5 8 8 7 6 9 9 8 8 9 11 13 15 14 13 13 14 9 8 9 8 9 8 10 14 11 8 10 10 8 10 9 4 7 7 6 9 10 10
7 4 6 6 9 7 9 6 8 5 8 8 8 9 8 7 7 6 5 6 8 11 11 13 14 15 12 11 9 9 9 9 10 10 12 11 11 11 10 10 10 10 12 6 7 8 8 10 11
5 11 6 6 6 3 6 3 5 3 6 8 9 8 7 8 6 4 5 7 9 10 11 11 12 13 13 12 12 9 9 10 9 9 10 14 10 10 10 10 10 10 10 10 13 9 9 10 12
8 7 3 7 4 4 2 5 4 5 5 8 7 6 7 7 6 7 5 7 6 5 8 12 12 13 12 12 11 9 9 10 9 9 12 14 12 12 12 9 9 10 11 13 11 14 10 10 10
4 5 3 3 4 1 3 3 3 7 9 6 6 6 6 6 6 6 6 5 6 5 7 8 10 11 11 11 9 8 8 8 9 9 10 14 14 14 11 9 9 12 10 10 9 10 14 11 12
4 3 3 2 2 1 3 2 6 6 8 7 5 5 6 5 7 6 7 7 7 6 6 7 8 11 11 10 8 8 9 8 8 8 9 14 13 15 12 9 10 13 10 10 10 10 8 11 13
8 5 1 4 1 0 3 3 6 6 7 8 6 5 5 5 4 5 6 7 7 8 7 7 7 10 10 7 6 5 7 7 7 8 10 14 11 14 12 10 12 12 10 10 11 13 12 9 10
4 5 4 1 1 1 3 5 8 7 5 7 6 6 6 6 4 4 4 5 6 6 7 8 9 10 9 9 9 5 9 8 8 8 12 13 13 14 12 10 11 12 11 13 15 12 15 12 11
4 5 2 2 1 2 0 6 8 8 7 8 9 8 8 5 5 5 5 3 3 3 5 5 6 6 7 6 6 3 5 4 5 8 10 12 13 13 12 13 12 15 12 14 15 15 12 9 10
4 3 3 1 1 2 3 7 6 7 5 7 7 7 6 9 8 6 5 5 4 2 1 3 4 5 5 6 5 4 4 4 6 10 9 11 12 12 12 14 13 14 12 11 15 14 14 12 10
2 0 2 2 3 4 4 6 6 7 13 9 10 9 9 9 7 6 4 3 2 1 2 3 4 5 6 6 5 5 4 5 5 6 8 9 12 12 12 13 13 13 11 13 12 12 12 12 14
2 2 3 1 2 1 3 1 6 7 11 16 12 10 9 9 8 7 6 4 3 2 2 2 4 4 5 5 5 4 4 3 4 6 9 9 9 12 12 13 12 12 10 11 13 14 14 10 11
5 4 4 3 2 3 3 4 7 8 12 7 7 9 10 9 7 6 6 5 4 2 0 1 2 3 3 4 5 5 5 5 5 7 7 8 7 8 11 13 12 11 11 12 11 14 16 13 12
1 4 4 6 5 6 1 2 12 6 6 10 18 12 10 9 8 7 7 6 5 5 4 3 2 4 3 3 4 5 5 5 5 6 6 8 7 8 10 12 12 11 12 13 13 13 15 14 14
4 6 6 8 4 3 4 8 10 6 5 4 8 13 9 8 7 8 8 8 7 7 7 6 5 5 4 3 3 3 4 3 3 4 5 5 5 7 10 11 11 12 13 12 13 10 12 14 14
4 4 4 8 2 4 4 8 8 3 2 5 9 9 10 9 8 9 8 8 8 7 8 8 7 6 5 5 3 3 3 4 4 5 4 4 5 8 10 10 11 12 12 12 13 10 12 13 15
4 3 4 3 2 4 5 6 9 6 8 6 8 10 9 8 8 8 8 8 7 7 7 7 7 7 6 5 4 3 4 4 4 4 5 6 6 8 9 11 11 12 12 12 13 11 12 14 12
1 1 2 2 5 6 2 9 7 7 12 15 11 9 9 9 9 8 8 7 8 6 7 7 7 7 7 6 4 4 4 4 4 4 4 5 7 8 9 10 11 12 13 13 12 13 14 15 16
4 6 5 7 6 3 2 12 3 4 5 8 9 9 8 7 8 8 8 7 6 7 7 8 7 7 7 6 5 5 4 4 4 4 5 4 6 7 8 10 11 12 12 13 13 14 14 15 17
Wind_Direction
320 311 355 40 58 62 353 352 339 320 61 69 77 85 91 56 41 84 310 359 6 7 14 360 13 44 49 59 100 81 23 2 50 119 124 138 130 303 266 265 294 289 254 214 173 171 165 155 147
318 321 30 83 86 72 333 310 33 16 96 96 59 44 49 74 17 92 7 350 6 17 20 22 22 22 20 5 331 129 107 356 334 253 243 241 224 238 272 244 235 257 258 267 204 185 170 159 158
293 239 65 80 94 123 144 295 330 57 33 95 103 53 53 337 14 49 345 351 7 20 13 12 18 19 16 11 15 323 228 159 317 327 288 233 250 250 263 282 238 249 258 265 236 193 178 165 166
324 20 34 79 144 336 57 5 6 26 18 43 109 79 103 29 35 359 349 4 14 18 11 8 13 16 16 14 14 10 1 295 201 251 298 301 275 274 263 271 255 238 251 264 227 198 175 175 179
32 27 332 121 110 55 47 65 52 62 78 16 326 119 82 35 24 13 13 15 19 13 12 10 11 11 11 12 13 9 7 358 333 217 244 278 295 292 260 261 261 241 235 253 269 217 192 182 188
60 85 169 231 143 112 54 19 75 33 47 8 64 77 76 335 20 15 18 19 18 15 14 10 7 8 6 6 9 7 8 3 1 338 244 242 265 282 287 276 272 254 240 235 245 220 195 195 198
127 133 223 126 146 87 31 328 63 81 23 10 321 83 129 24 14 6 21 19 18 16 16 10 7 4 3 1 7 4 3 3 3 3 358 280 252 249 260 275 277 273 265 238 232 241 206 205 209
106 113 200 31 179 129 17 80 131 69 35 228 20 46 27 355 1 8 20 20 21 18 15 8 5 5 1 355 4 0 0 1 1 5 359 350 292 242 240 242 258 269 271 265 244 239 230 214 211
48 83 186 167 140 128 19 102 32 59 91 47 51 63 60 24 16 31 23 19 18 17 13 6 4 2 360 357 359 357 357 358 360 3 355 351 346 298 248 234 228 242 247 253 256 246 241 223 211
77 114 144 310 10 90 54 73 70 87 76 76 79 39 37 39 34 30 22 19 14 8 6 7 3 1 358 358 358 355 353 353 357 356 354 352 345 348 311 263 237 235 236 242 243 245 244 224 213
38 127 154 41 29 111 104 59 25 146 61 81 114 94 56 44 41 42 28 16 7 0 6 5 2 1 359 358 356 354 353 356 355 357 355 352 350 352 359 341 287 244 237 245 239 242 240 229 217
98 38 109 102 18 70 92 103 54 41 122 127 117 117 92 65 51 44 38 19 13 6 2 1 6 3 360 356 358 354 359 360 354 356 360 355 356 354 347 347 332 303 244 229 228 230 228 231 219
94 135 60 82 73 61 92 77 122 105 126 109 100 84 81 72 69 52 47 35 18 17 9 1 2 2 0 3 359 360 357 357 355 359 358 6 357 357 347 341 340 337 333 269 233 225 225 225 230
108 100 93 45 62 73 101 63 124 158 131 97 93 88 86 81 79 62 41 36 26 14 8 3 9 4 360 3 3 2 359 358 359 358 360 6 357 358 350 341 340 340 343 329 320 242 226 223 223
139 98 107 17 354 121 120 20 99 146 125 109 98 96 81 75 68 61 45 46 29 11 355 5 9 4 7 4 2 2 3 1 1 359 10 1 3 356 349 342 342 343 336 329 326 329 248 238 229
91 75 146 346 358 110 142 203 220 148 128 127 112 99 86 63 61 51 51 56 31 17 10 359 2 4 4 2 360 0 2 3 5 2 3 3 1 356 351 347 349 340 335 338 334 330 337 271 236
360 192 175 248 40 286 142 163 227 151 133 143 141 116 99 77 53 39 35 36 29 17 6 8 5 4 0 1 358 359 3 9 6 2 4 4 2 359 355 351 345 343 345 341 340 333 333 315 319
186 178 150 183 228 5 129 202 198 174 147 164 164 133 113 96 91 81 49 36 22 11 4 8 12 11 3 1 357 2 7 11 7 5 5 3 2 1 358 353 351 351 344 341 338 338 333 322 309
138 120 130 88 269 138 204 175 210 201 158 171 179 162 157 148 154 105 67 52 31 23 13 4 2 1 7 5 3 8 7 2 4 4 3 3 2 3 1 358 353 353 351 347 346 335 333 330 336
79 115 93 29 175 97 194 245 219 214 204 188 184 185 183 177 167 151 140 121 67 25 13 15 7 359 10 3 358 350 330 344 357 355 359 1 2 3 3 359 358 359 352 351 350 345 337 322 1
27 124 179 131 21 342 40 284 194 221 212 200 199 186 181 181 178 178 165 154 159 122 60 44 16 6 15 1 357 353 337 330 1 2 358 357 358 359 2 0 1 359 358 352 348 344 341 324 329
159 328 116 149 138 204 162 261 230 202 205 205 199 183 189 185 174 170 166 139 124 104 69 47 28 19 24 2 10 13 6 355 346 339 340 349 355 357 360 359 357 358 353 349 343 338 330 328 323
180 162 150 128 110 48 201 106 254 153 212 213 206 193 198 194 176 176 179 161 162 106 51 22 15 18 13 16 18 9 3 330 325 338 342 349 350 352 356 355 354 353 352 345 338 338 338 329 320
140 86 46 53 54 17 233 156 268 190 209 185 187 190 188 187 186 180 191 174 199 198 244 332 359 340 359 12 8 12 1 339 345 345 345 344 342 343 350 348 348 344 342 342 340 338 335 332 325
77 85 7 353 7 223 149 109 246 246 228 188 189 182 184 183 178 186 201 214 220 219 233 257 268 307 318 346 354 356 350 344 339 340 338 337 337 339 339 344 341 338 338 339 338 336 337 332 330
175 154 162 203 206 257 336 231 252 233 272 220 163 162 164 180 187 201 214 216 221 222 214 221 231 253 261 283 306 330 337 332 326 327 327 325 323 323 328 334 335 334 332 335 336 332 335 332 330
218 204 175 102 43 41 230 290 309 176 97 132 143 148 182 192 198 206 221 218 218 221 224 220 224 236 242 247 266 300 315 324 318 319 305 301 308 324 331 328 329 333 332 334 333 327 329 328 331
146 193 84 360 135 263 279 279 247 208 212 184 177 186 196 207 215 218 226 226 227 222 226 226 230 231 235 226 230 252 285 297 301 314 320 321 316 321 325 330 331 331 331 331 332 325 323 331 331
105 226 38 124 150 176 254 260 217 217 197 196 198 197 199 211 218 222 226 233 231 232 228 234 237 233 237 232 227 243 271 286 294 302 306 308 317 323 326 330 328 330 329 331 327 323 321 328 327
175 209 160 130 235 227 153 269 283 273 212 184 197 198 212 216 223 225 230 242 234 236 238 236 241 233 229 229 222 232 250 268 280 287 296 292 303 319 320 325 326 327 327 326 324 320 319 325 326